Challis, ID

10:32 PM MDT on March 24, 2017 (GMT -0600)
Challis

Weather History for KLLJ - April, 2014

Change the Weather History Date:

Wednesday, April 16, 2014

  Actual Average Record
Temperature  
Mean Temperature 39 °F 43 °F  
Max Temperature 56 °F 57 °F 87 °F (1915)
Min Temperature 22 °F 29 °F 12 °F (1896)
Degree Days  
Heating Degree Days 26 22  
Month to date heating degree days 352 369  
Since 1 July heating degree days 6954 7314  
Cooling Degree Days 0 0  
Month to date cooling degree days 0 0  
Year to date cooling degree days 0 0  
Moisture  
Dew Point 13 °F    
Average Humidity 37    
Maximum Humidity 57    
Minimum Humidity 17    
Precipitation  
Precipitation 0.00 in 0.02 in 0.30 in (1933)
Month to date precipitation 0.58 0.38  
Year to date precipitation 2.26 2.22  
Sea Level Pressure  
Sea Level Pressure 29.98 in    
Wind  
Wind Speed 4 mph (WNW)    
Max Wind Speed 16 mph    
Max Gust Speed 25 mph    
Visibility 10 miles    
Events      
T = Trace of Precipitation, MM = Missing Value Source: NWS Daily Summary

Daily Weather History Graph

Daily Weather History Graph

Search for Another Location

Airport or City:

Trip Planner

Search our weather history database for the weather conditions in past years. The results will help you decide how hot, cold, wet, or windy it might be!

Date:

Astronomy

Apr. 16, 2014 Rise Set
Actual Time 6:51 AM MDT 8:23 PM MDT
Civil Twilight 6:20 AM MDT 8:53 PM MDT
Nautical Twilight 5:43 AM MDT 9:30 PM MDT
Astronomical Twilight 5:04 AM MDT 10:10 PM MDT
Moon 10:14 PM MDT (4/16) 7:38 AM MDT (4/16)
Length of Visible Light 14h 32m
Length of Day
13h 31m
Full, 98% of the Moon is Illuminated
Apr 16
Full
Apr 22
Last Quarter
Apr 29
New
May 6
First Quarter
May 14
Full

Hourly Weather History & Observations

Time (MDT) Temp. Windchill Dew Point Humidity Pressure Visibility Wind Dir Wind Speed Gust Speed Precip Events Conditions
12:55 AM 35.1 °F 30.1 °F - N/A% 29.96 in 10.0 mi North 5.8 mph - N/A   Clear
1:55 AM 33.1 °F 27.7 °F - N/A% 29.99 in 10.0 mi South 5.8 mph - N/A   Clear
2:55 AM 30.0 °F 24.1 °F - N/A% 29.99 in 10.0 mi West 5.8 mph - N/A   Clear
3:55 AM 30.9 °F - 12.9 °F 47% 30.00 in 10.0 mi Calm Calm - N/A   Clear
4:55 AM 27.0 °F - 14.0 °F 58% 30.04 in 10.0 mi Calm Calm - N/A   Clear
5:55 AM 28.0 °F 24.2 °F 12.9 °F 53% 30.02 in 10.0 mi Variable 3.5 mph - N/A   Clear
6:55 AM 27.0 °F - 14.0 °F 58% 30.04 in 10.0 mi Calm Calm - N/A   Clear
7:55 AM 30.0 °F - 14.0 °F 51% 30.04 in 10.0 mi Calm Calm - N/A   Clear
8:55 AM 34.0 °F - 15.1 °F 46% 30.05 in 10.0 mi Calm Calm - N/A   Clear
9:55 AM 37.9 °F 35.5 °F 14.0 °F 38% 30.04 in 10.0 mi East 3.5 mph - N/A   Partly Cloudy
10:55 AM 42.1 °F 40.2 °F 14.0 °F 32% 30.02 in 10.0 mi Variable 3.5 mph - N/A   Mostly Cloudy
11:55 AM 45.0 °F 41.8 °F 10.0 °F 24% 29.99 in 10.0 mi SE 5.8 mph - N/A   Partly Cloudy
12:55 PM - - - N/A% 29.98 in 10.0 mi Variable 3.5 mph - N/A   Clear
1:55 PM - - - N/A% 29.97 in - North - - N/A   Partly Cloudy
2:55 PM 52.0 °F - 8.1 °F 17% 29.93 in - North - - N/A   Unknown
3:55 PM 52.0 °F - 9.0 °F 18% 29.93 in 10.0 mi Variable 4.6 mph - N/A   Clear
4:55 PM 52.0 °F - 8.1 °F 17% 29.91 in 10.0 mi South 3.5 mph - N/A   Mostly Cloudy
5:55 PM 55.0 °F - 12.0 °F 18% 29.89 in 10.0 mi NW 11.5 mph 19.6 mph N/A   Partly Cloudy
6:55 PM 51.1 °F - 12.0 °F 21% 29.94 in 10.0 mi WNW 13.8 mph - N/A   Clear
7:55 PM 48.9 °F - 15.1 °F 26% 29.94 in 10.0 mi NW 12.7 mph - N/A   Clear
8:55 PM 45.0 °F 42.6 °F 15.1 °F 30% 29.95 in 10.0 mi WNW 4.6 mph - N/A   Clear
9:55 PM 42.1 °F - 17.1 °F 37% 29.97 in 10.0 mi Calm Calm - N/A   Clear
10:55 PM 37.0 °F 31.6 °F 16.0 °F 42% 29.98 in 10.0 mi WNW 6.9 mph - N/A   Clear
11:55 PM 37.0 °F 33.3 °F 18.0 °F 46% 29.98 in 10.0 mi NW 4.6 mph - N/A   Clear